Tracking 23114 objects as of 14-May-2021
HD Live streaming from Space Station
objects crossing your sky now

ONEWEB-0181

Track ONEWEB-0181 now!
10-day predictions
ONEWEB-0181 is classified as:


NORAD ID: 48230
Int'l Code: 2021-031W
Perigee: 469.1 km
Apogee: 480.7 km
Inclination: 87.4 °
Period: 94.0 minutes
Semi major axis: 6845 km
RCS: Unknown
Launch date: April 25, 2021
Source: United Kingdom (UK)
Launch site: VOSTOCHNY COSMODROME (VOSTO)
aabbcc
Your satellite tracking list
Your tracking list is empty




NASA's NSSDC Master Catalog

Two Line Element Set (TLE):
1 48230U 21031W   21134.16667824 -.01467569  00000-0 -51438-1 0  9997
2 48230  87.4049 306.6895 0008466 201.8730   3.5456 15.32686227  2796
Source of the keplerian elements: AFSPC